sat.trackr.live / text

‹ back to catalog

STARLINK-4545

NORAD 53421 · 2022-097AK

PAYLOAD ACTIVE UNKNOWN

§ Identity

Operator
Country
US
Launch date
2022-08-10
Launch site
AFETR
Launch vehicle
Mass (kg)
RCS (m²)

Purposes: comms

External: N2YO · Heavens-Above · Gunter

§ Orbital elements

Epoch: 2026-09-19T18:11:37.305024Z

Period
94.01 min
Inclination
53.1604°
Eccentricity
0.0001145
Mean motion
15.31704319 rev/d
Perigee alt
469.9 km
Apogee alt
471.5 km
Semi-major
6,848.9 km
B*
1.6569e-5
RAAN
310.2901°
Arg perigee
77.7931°
Mean anomaly
282.3199°
Rev number
22,809

§ Raw data

STARLINK-45451 53421U 22097AK  26262.75807066  .00000149  00000+0  16569-4 0  99962 53421  53.1604 310.2901 0001145  77.7931 282.3199 15.31704319228096

JSON: /api/v1/satellites/53421 · /tle

For live sub-satellite position, see the globe view (requires WebGL).

§ Visibility from observer

Set your observer location to see the next 7 days of passes ≥ 10°. The values pass through the URL so the page stays shareable.

No JS? Fill the form by hand. The geolocation button needs JavaScript.